• Join FlightAware (Why Join?)
  • Login
  • US Flag GB Flag 
19:56 EST


 

Airport Tracker/Info


-or-


 

Live Flight TrackerFlight Track Log ✈ SWA2436 ✈ 12-Apr-2013 ✈ KMSY - KHOU

Flight Track Log - Related Links

Times and Time Zones

All times are in EDT time to prevent confusion due to time zone crossing. See the SWA2436 flight status page for this flight to view local times or setup timezone preferences in your user account.

Time Position Orientation Groundspeed Altitude Reporting Facility
EDT Latitude Longitude Course Direction KTS MPH feet Rate Location/Type
22:51 29.9331 -90.3161 220° Southwest 240 276 4,400  Level Houston Center
22:52 29.9042 -90.4003 248° West 266 306 9,300 4,380 Climbing Houston Center
22:53 29.8731 -90.4914 249° West 303 349 13,400 4,260 Climbing Houston Center
22:54 29.8386 -90.5894 248° West 329 379 18,000 3,900 Climbing Houston Center
22:55 29.8086 -90.6931 252° West 340 391 21,400 3,240 Climbing Houston Center
22:56 29.7964 -90.8125 263° West 373 429 24,600 3,000 Climbing Houston Center
22:57 29.7797 -90.9331 261° West 381 438 27,500 2,700 Climbing Houston Center
22:58 29.7628 -91.0592 261° West 396 456 30,100 2,460 Climbing Houston Center
22:59 29.7458 -91.1872 261° West 404 465 32,600 2,580 Climbing Houston Center
23:00 29.7297 -91.3128 262° West 399 459 35,400 2,160 Climbing Houston Center
23:01 29.7128 -91.4353 261° West 390 449 37,000 1,680 Climbing Houston Center
23:02 29.6925 -91.5883 261° West 400 460 38,900 1,440 Climbing Houston Center
23:03 29.6747 -91.7172 261° West 406 467 40,000 540 Climbing Houston Center
23:04 29.6581 -91.8475 262° West 403 464 40,000  Level Houston Center
23:05 29.6400 -91.9719 261° West 397 457 40,000  Level Houston Center
23:06 29.6225 -92.0969 261° West 396 456 40,000  Level Houston Center
23:07 29.6058 -92.2219 261° West 396 456 40,000  Level Houston Center
23:08 29.5886 -92.3469 261° West 396 456 40,000  Level Houston Center
23:09 29.5706 -92.4719 261° West 397 457 40,000  Level Houston Center
23:10 29.5519 -92.5986 260° West 400 460 40,000  Level Houston Center
23:11 29.5347 -92.7253 261° West 402 463 40,000  Level Houston Center
23:12 29.5164 -92.8517 261° West 402 463 40,000  Level Houston Center
23:13 29.4975 -92.9778 260° West 400 460 40,000  Level Houston Center
23:14 29.4786 -93.1067 260° West 406 467 40,000  Level Houston Center
23:15 29.4603 -93.2336 261° West 404 465 40,000 -1,320 Level Houston Center
23:17 29.4408 -93.3603 260° West 405 466 37,400 -3,000 Descending Houston Center
23:18 29.4222 -93.4881 261° West 404 465 34,000 -3,300 Descending Houston Center
23:19 29.4022 -93.6136 260° West 402 463 30,800 -3,180 Descending Houston Center
23:20 29.3806 -93.7581 260° West 386 444 27,600 -3,060 Descending Houston Center
23:20 29.3756 -93.7969 262° West 378 435 26,800 -2,700 Descending Houston Center
23:21 29.3633 -93.8764 260° West 376 433 24,900 -2,700 Descending Houston Center
23:21 29.3550 -93.9244 259° West 365 420 23,800 -2,460 Descending Houston Center
23:22 29.3458 -93.9894 261° West 366 421 22,400 -2,400 Descending Houston Center
23:22 29.3389 -94.0322 259° West 353 406 21,400 -2,340 Descending Houston Center
23:23 29.3300 -94.0969 261° West 349 402 20,100 -2,220 Descending Houston Center
23:23 29.3336 -94.1458 275° West 339 390 19,200 -2,220 Descending Houston Center
23:24 29.3414 -94.2028 279° West 338 389 17,900 -2,400 Descending Houston Center
23:24 29.3467 -94.2544 277° West 333 383 16,800 -1,980 Descending Houston Center
23:25 29.3517 -94.3078 276° West 334 384 15,900 -1,620 Descending Houston Center
23:25 29.3567 -94.3561 277° West 326 375 15,200 -1,620 Descending Houston Center
23:26 29.3622 -94.4108 277° West 329 379 14,300 -1,740 Descending Houston Center
23:26 29.3683 -94.4722 277° West 347 399 13,300 -1,680 Descending Houston Center
23:27 29.3739 -94.5219 277° West 344 396 12,600 -1,680 Descending Houston Center
23:27 29.3783 -94.5742 276° West 349 402 11,800 -1,680 Descending Houston Center
23:28 29.3853 -94.6336 278° West 351 404 10,900 -1,680 Descending Houston Center
23:28 29.3897 -94.6928 275° West 347 399 10,100 -900 Descending Houston Center
23:29 29.3956 -94.7411 278° West 345 397 10,000 -120 Descending Houston Center
23:29 29.4031 -94.8061 278° West 322 371 10,000 -540 Level Houston Center
23:30 29.4064 -94.8428 276° West 328 377 9,500 -1,560 Descending Houston Center
23:30 29.4092 -94.8917 274° West 291 335 8,600 -1,740 Descending Houston Center
23:31 29.4144 -94.9325 278° West 291 335 7,800 -1,740 Descending Houston Center
23:31 29.4203 -94.9889 277° West 291 335 6,700 -1,800 Descending Houston Center
23:32 29.4239 -95.0250 277° West 290 334 6,000 -1,920 Descending Houston Center
23:32 29.4325 -95.0736 282° West 291 335 5,000 -1,800 Descending Houston Center
23:33 29.4453 -95.1161 289° West 295 339 4,200 -1,380 Descending Houston Center
23:33 29.4697 -95.1556 305° West 285 328 3,600 -1,320 Descending Houston Center
23:34 29.4922 -95.1917 306° West 287 330 2,900 -1,380 Descending Houston Center
23:34 29.5169 -95.2339 304° West 278 320 2,200 -720 Descending Houston Center
23:35 29.5364 -95.2644 306° West 277 319 2,200  Level Houston Center
23:35 29.5586 -95.2983 307° West 227 261 2,200  Level Houston Center
23:36 29.5728 -95.3233 303° West 228 262 2,200 -780 Level Houston Center
23:36 29.5892 -95.3356 327° Northwest 154 177 1,500 -1,380 Descending Houston Center
23:37 29.6064 -95.3208 37° Northeast 162 186 800 -900 Descending Houston Center
23:37 29.6183 -95.3081 43° Northeast 124 143 600 -600 Descending Houston Center
23:38 29.6331 -95.2928 42° Northeast 133 153 200 -600 Descending Houston Center
23:40 29.6333 -95.2667 115° Southeast  Level FlightAware Approximate